EW6393 Weather Reports


Display with metric or nautical units.
time (UTC)temp
F
wind
direction
speed
MPH
gust
MPH
rain 1hr
in
rain 24hr
in
rain mn
in
humidity
%
barometer
mb
20260506160619 51 42 3.0 9.0 0.00 0.28 0.28 43 1019.6
20260506160119 51 110 4.0 8.0 0.00 0.28 0.28 43 1019.4
20260506155627 51 79 5.0 8.0 0.00 0.28 0.28 41 1019.4
20260506155127 51 41 4.0 8.0 0.00 0.28 0.28 42 1019.3
20260506154636 51 43 5.0 9.0 0.00 0.28 0.28 41 1019.3
20260506154116 52 63 2.0 9.0 0.00 0.28 0.28 42 1019.3
20260506153637 52 33 1.0 4.0 0.00 0.28 0.28 42 1019.3
20260506153124 51 338 1.0 4.0 0.00 0.28 0.28 43 1019.3
20260506152626 52 15 1.0 2.0 0.00 0.28 0.28 44 1019.3
20260506152136 51 3 1.0 5.0 0.00 0.28 0.28 43 1019.2
20260506151614 51 11 1.0 5.0 0.00 0.28 0.28 42 1019.1
20260506151116 51 317 1.0 2.0 0.00 0.28 0.28 43 1019.1
20260506150642 50 23 1.0 6.0 0.00 0.28 0.28 43 1019.1
20260506150121 50 290 3.0 6.0 0.00 0.28 0.28 43 1018.9
20260506145630 51 345 1.0 5.0 0.00 0.28 0.28 44 1018.9
20260506145130 51 305 2.0 5.0 0.00 0.28 0.28 46 1018.8
20260506144658 51 331 0.0 5.0 0.00 0.28 0.28 46 1018.7
20260506144139 50 303 1.0 5.0 0.00 0.28 0.28 44 1018.7
20260506143620 50 293 0.0 3.0 0.00 0.28 0.28 43 1018.6
20260506143128 51 301 0.0 2.0 0.00 0.28 0.28 44 1018.7
20260506142630 51 301 0.0 2.0 0.00 0.28 0.28 43 1018.8
20260506142138 51 360 0.0 4.0 0.00 0.28 0.28 45 1018.7
20260506141619 50 11 1.0 4.0 0.00 0.28 0.28 44 1018.6
20260506141120 50 39 1.0 2.0 0.00 0.28 0.28 45 1018.5
20260506140621 50 351 0.0 3.0 0.00 0.28 0.28 47 1018.5
20260506140126 49 12 0.0 2.0 0.00 0.28 0.28 48 1018.5
20260506135626 49 337 0.0 1.0 0.00 0.28 0.28 46 1018.4
20260506135135 47 314 0.0 2.0 0.00 0.28 0.28 49 1018.4
20260506134637 46 8 0.0 2.0 0.00 0.28 0.28 51 1018.5
20260506134116 44 345 0.0 1.0 0.00 0.28 0.28 53 1018.4
20260506133623 43 345 0.0 1.0 0.00 0.28 0.28 56 1018.3
20260506133131 42 339 0.0 1.0 0.00 0.28 0.28 55 1018.3
20260506132648 42 85 0.0 1.0 0.00 0.28 0.28 56 1018.1
20260506132136 42 85 0.0 1.0 0.00 0.28 0.28 54 1017.8
20260506131615 42 49 0.0 1.0 0.00 0.28 0.28 57 1017.8
20260506131122 42 49 0.0 2.0 0.00 0.28 0.28 56 1017.7
20260506130622 42 277 1.0 2.0 0.00 0.28 0.28 56 1017.6
20260506130129 42 122 1.0 2.0 0.00 0.28 0.28 55 1017.4
20260506125630 42 299 0.0 3.0 0.00 0.28 0.28 55 1017.4
20260506125118 42 352 0.0 3.0 0.00 0.28 0.28 56 1017.3
20260506124618 42 287 0.0 1.0 0.00 0.28 0.28 58 1017.1
20260506124119 43 341 0.0 4.0 0.00 0.28 0.28 57 1017.0
20260506123627 44 320 2.0 3.0 0.00 0.28 0.28 54 1017.0
20260506123148 46 291 1.0 4.0 0.00 0.28 0.28 47 1016.9
20260506122635 47 58 1.0 4.0 0.00 0.28 0.28 40 1016.8
20260506122116 47 49 2.0 9.0 0.00 0.28 0.28 38 1016.5
20260506121645 47 46 3.0 9.0 0.00 0.28 0.28 42 1016.5
20260506121143 48 150 2.0 6.0 0.00 0.28 0.28 37 1016.5
20260506120630 48 129 2.0 15.0 0.00 0.28 0.28 36 1016.4
20260506120130 47 71 4.0 15.0 0.00 0.28 0.28 38 1016.2
20260506115638 47 148 3.0 10.0 0.00 0.28 0.28 40 1016.3
20260506115118 47 77 2.0 10.0 0.00 0.28 0.28 42 1016.3
20260506114619 47 142 2.0 10.0 0.00 0.28 0.28 41 1016.3
20260506114147 47 143 2.0 9.0 0.00 0.28 0.28 42 1016.3
20260506113614 47 56 4.0 10.0 0.00 0.28 0.28 41 1016.3
20260506113116 47 160 4.0 10.0 0.00 0.28 0.28 45 1016.3
20260506112617 46 97 1.0 7.0 0.00 0.28 0.28 46 1016.2
20260506112145 45 212 2.0 6.0 0.00 0.28 0.28 50 1016.2
20260506111652 45 216 1.0 5.0 0.00 0.28 0.28 52 1016.1
20260506111111 46 59 0.0 11.0 0.00 0.28 0.28 53 1016.1
20260506110617 46 199 3.0 17.0 0.00 0.28 0.28 52 1016.0
20260506110118 45 120 5.0 18.0 0.00 0.28 0.28 54 1015.8
20260506105626 44 125 9.0 21.0 0.00 0.28 0.28 56 1015.7
20260506105127 43 150 10.0 23.0 0.00 0.28 0.28 58 1015.6
20260506104627 43 229 12.0 23.0 0.00 0.28 0.28 58 1015.8
20260506104135 43 176 10.0 26.0 0.00 0.28 0.28 58 1015.9
20260506103616 43 132 10.0 27.0 0.00 0.28 0.28 59 1015.8
20260506103117 43 134 12.0 27.0 0.00 0.28 0.28 58 1015.6
20260506102624 43 224 13.0 25.0 0.00 0.28 0.28 59 1015.6
20260506102125 43 134 13.0 27.0 0.00 0.28 0.28 60 1015.5
20260506101612 42 180 13.0 31.0 0.00 0.28 0.28 60 1015.3
20260506101112 42 143 13.0 29.0 0.00 0.28 0.28 61 1015.3
20260506100615 42 137 9.0 29.0 0.00 0.28 0.28 64 1015.3
20260506100141 42 138 10.0 26.0 0.00 0.28 0.28 64 1015.4
20260506095628 42 112 15.0 31.0 0.00 0.28 0.28 62 1015.1
20260506095128 42 109 15.0 31.0 0.00 0.28 0.28 62 1015.0
20260506094629 42 189 11.0 26.0 0.00 0.28 0.28 64 1014.7
20260506094137 42 127 15.0 26.0 0.00 0.28 0.28 63 1014.5
20260506093617 42 139 11.0 31.0 0.01 0.28 0.28 66 1014.7
20260506093117 42 102 12.0 33.0 0.03 0.28 0.28 65 1014.6
20260506092645 42 123 15.0 33.0 0.10 0.28 0.28 63 1014.7
20260506092125 42 116 15.0 34.0 0.16 0.28 0.28 64 1014.4
20260506091633 42 188 14.0 34.0 0.19 0.28 0.28 65 1014.5
20260506091113 42 73 16.0 31.0 0.21 0.28 0.28 67 1014.3
20260506090621 41 150 17.0 32.0 0.22 0.28 0.28 70 1014.2
20260506090141 41 84 14.0 33.0 0.22 0.28 0.28 73 1014.4
20260506085627 41 105 18.0 33.0 0.22 0.28 0.28 72 1013.9
20260506085128 41 114 18.0 32.0 0.22 0.28 0.28 74 1014.0
20260506084636 40 68 17.0 28.0 0.22 0.28 0.28 76 1014.0
20260506084117 40 125 12.0 30.0 0.22 0.28 0.28 78 1014.2
20260506083618 40 132 17.0 30.0 0.21 0.27 0.27 79 1014.0
20260506083118 40 124 17.0 30.0 0.18 0.24 0.24 80 1014.4
20260506082626 40 65 12.0 30.0 0.12 0.18 0.18 81 1014.3
20260506082126 41 99 15.0 30.0 0.06 0.12 0.12 79 1013.7
20260506081631 42 77 13.0 31.0 0.03 0.09 0.09 77 1013.5
20260506081132 43 56 13.0 33.0 0.01 0.07 0.07 73 1013.4
20260506080617 45 69 14.0 30.0 0.00 0.06 0.06 69 1013.1
20260506080144 46 46 15.0 28.0 0.00 0.06 0.06 66 1012.6
20260506073119 49 72 0.0 1.0 0.04 0.06 0.06 83 1012.4
20260506072643 49 104 0.0 0.0 0.04 0.06 0.06 82 1012.5
20260506072123 49 104 0.0 2.0 0.05 0.06 0.06 80 1012.6
20260506071651 49 104 0.0 2.0 0.05 0.06 0.06 80 1012.6
20260506071111 49 88 1.0 3.0 0.06 0.06 0.06 80 1012.6
20260506070611 49 79 2.0 3.0 0.06 0.06 0.06 79 1012.6
20260506070118 49 60 0.0 4.0 0.05 0.05 0.05 80 1012.7
20260506062124 51 97 1.0 2.0 0.01 0.01 0.01 74 1012.4
20260506061653 52 290 0.0 1.0 0.00 0.00 0.00 71 1012.4
20260506061112 52 352 0.0 1.0 0.00 0.00 0.00 68 1012.3
20260506060613 51 92 0.0 1.0 0.00 0.00 0.00 65 1012.1
20260506060121 51 92 0.0 0.0 0.00 0.00 0.00 64 1012.0
20260506051135 52 283 1.0 2.0 0.00 0.00 0.00 63 1011.3
20260506050615 52 261 0.0 3.0 0.00 0.00 0.00 62 1011.1
20260506050115 52 254 1.0 3.0 0.00 0.00 0.00 61 1010.8
20260506045123 52 87 0.0 1.0 0.00 0.00 0.00 59 1010.6
20260506044624 52 100 0.0 1.0 0.00 0.00 0.00 59 1010.5
20260506044132 53 100 0.0 1.0 0.00 0.00 0.00 59 1010.6
20260506043617 52 82 0.0 2.0 0.00 0.00 0.00 59 1010.8
20260506043117 53 101 1.0 2.0 0.00 0.00 0.00 58 1010.8
20260506042626 53 84 0.0 1.0 0.00 0.00 0.00 58 1010.7
20260506042143 52 84 0.0 2.0 0.00 0.00 0.00 58 1010.7
20260506041630 52 96 0.0 1.0 0.00 0.00 0.00 59 1010.8
20260506041114 52 33 0.0 1.0 0.00 0.00 0.00 59 1010.9
20260506040657 52 20 0.0 2.0 0.00 0.00 0.00 59 1010.9
20260506040115 52 71 0.0 2.0 0.00 0.00 0.00 60 1010.8
20260506035615 51 65 0.0 1.0 0.00 0.00 0.00 60 1010.8
20260506035124 52 55 0.0 1.0 0.00 0.00 0.00 60 1010.8
20260506034624 52 55 0.0 1.0 0.00 0.00 0.00 60 1010.8
20260506034131 52 55 0.0 1.0 0.00 0.00 0.00 60 1010.6
20260506033612 52 55 0.0 1.0 0.00 0.00 0.00 58 1010.4
20260506033112 53 55 0.0 2.0 0.00 0.00 0.00 58 1010.4
20260506032620 53 55 1.0 2.0 0.00 0.00 0.00 57 1010.4
20260506032122 53 126 0.0 1.0 0.00 0.00 0.00 58 1010.5
20260506031622 53 126 0.0 1.0 0.00 0.00 0.00 58 1010.6
20260506031116 53 126 0.0 1.0 0.00 0.00 0.00 57 1010.5
20260506030615 54 126 0.0 1.0 0.00 0.00 0.00 56 1010.5
20260506030115 54 161 0.0 0.0 0.00 0.00 0.00 56 1010.3
20260506025622 54 161 0.0 0.0 0.00 0.00 0.00 56 1010.3
20260506025123 55 161 0.0 0.0 0.00 0.00 0.00 55 1010.2
20260506024632 55 161 0.0 0.0 0.00 0.00 0.00 55 1010.1
20260506024134 56 161 0.0 0.0 0.00 0.00 0.00 53 1010.1
20260506023615 56 161 0.0 0.0 0.00 0.00 0.00 53 1010.1
20260506023123 57 161 0.0 1.0 0.00 0.00 0.00 52 1009.9
20260506022623 58 161 0.0 1.0 0.00 0.00 0.00 49 1009.8
20260506022131 59 160 0.0 2.0 0.00 0.00 0.00 48 1009.8
20260506021612 60 125 1.0 3.0 0.00 0.00 0.00 46 1009.7
20260506021112 61 165 0.0 3.0 0.00 0.00 0.00 45 1009.6
20260506020613 62 226 0.0 2.0 0.00 0.00 0.00 45 1009.5
20260506020119 62 226 1.0 2.0 0.00 0.00 0.00 44 1009.6
20260506015621 62 153 0.0 2.0 0.00 0.00 0.00 44 1009.5
20260506015129 63 213 0.0 3.0 0.00 0.00 0.00 42 1009.4
20260506014629 64 207 1.0 3.0 0.00 0.00 0.00 41 1009.6
20260506014130 64 23 0.0 3.0 0.00 0.00 0.00 41 1009.6
20260506013611 64 232 0.0 2.0 0.00 0.00 0.00 42 1009.5
20260506013118 64 233 0.0 2.0 0.00 0.00 0.00 42 1009.5
20260506012620 64 186 1.0 3.0 0.00 0.00 0.00 41 1009.5
20260506012128 64 53 1.0 3.0 0.00 0.00 0.00 38 1009.5
20260506011628 64 184 0.0 3.0 0.00 0.00 0.00 38 1009.5
20260506011136 64 209 0.0 3.0 0.00 0.00 0.00 39 1009.6
20260506010637 64 167 1.0 3.0 0.00 0.00 0.00 39 1009.5
20260506010122 63 135 1.0 3.0 0.00 0.00 0.00 40 1009.6
20260506005643 64 112 1.0 3.0 0.00 0.00 0.00 38 1009.6
20260506005129 64 155 2.0 3.0 0.00 0.00 0.00 38 1009.6
20260506004626 64 177 1.0 5.0 0.00 0.00 0.00 39 1009.7
20260506004117 63 200 1.0 5.0 0.00 0.00 0.00 40 1009.6
20260506003618 63 171 2.0 4.0 0.00 0.00 0.00 39 1009.7
20260506003120 63 149 1.0 4.0 0.00 0.00 0.00 39 1009.8
20260506002644 64 154 1.0 4.0 0.00 0.00 0.00 39 1009.7
20260506002123 63 243 0.0 5.0 0.00 0.00 0.00 39 1009.7
20260506001652 63 253 2.0 4.0 0.00 0.00 0.00 41 1009.7
20260506001112 63 288 2.0 4.0 0.00 0.00 0.00 39 1009.7
20260506000640 63 295 2.0 4.0 0.00 0.00 0.00 41 1009.8
20260506000120 64 330 1.0 3.0 0.00 0.00 0.00 40 1009.7
20260505235628 63 254 1.0 4.0 0.00 0.00 0.00 42 1009.6
20260505235129 62 259 1.0 5.0 0.00 0.00 0.00 42 1009.7
20260505234636 63 271 1.0 3.0 0.00 0.00 0.00 39 1009.7
20260505234117 64 293 1.0 3.0 0.00 0.00 0.00 41 1009.7
20260505233617 63 210 1.0 3.0 0.00 0.00 0.00 42 1009.7
20260505233145 63 272 0.0 2.0 0.00 0.00 0.00 41 1009.8
20260505232646 63 268 0.0 3.0 0.00 0.00 0.00 46 1009.9
20260505232133 63 148 1.0 3.0 0.00 0.00 0.00 42 1009.9
20260505231614 62 221 0.0 2.0 0.00 0.00 0.00 44 1009.9
20260505231113 60 219 1.0 2.0 0.00 0.00 0.00 46 1010.1
20260505230642 60 101 1.0 3.0 0.00 0.00 0.00 45 1010.1
20260505230127 59 160 1.0 3.0 0.00 0.00 0.00 48 1010.1
20260505225627 58 191 0.0 2.0 0.00 0.00 0.00 49 1010.3
20260505225129 58 75 0.0 3.0 0.00 0.00 0.00 48 1010.3
20260505224637 58 89 2.0 4.0 0.00 0.00 0.00 47 1010.4
20260505224118 58 169 1.0 5.0 0.00 0.00 0.00 47 1010.4
20260505223618 57 89 0.0 3.0 0.00 0.00 0.00 49 1010.4
20260505223119 56 309 1.0 4.0 0.00 0.00 0.00 50 1010.5
20260505222627 56 70 1.0 5.0 0.00 0.00 0.00 48 1010.6
20260505222129 57 70 2.0 5.0 0.00 0.00 0.00 48 1010.8
20260505221636 56 35 1.0 4.0 0.00 0.00 0.00 52 1010.8
20260505221116 56 82 0.0 5.0 0.00 0.00 0.00 52 1010.8
20260505220615 55 174 1.0 10.0 0.00 0.00 0.00 53 1010.8
20260505220121 55 72 4.0 10.0 0.00 0.00 0.00 56 1010.9
20260505215124 54 88 6.0 12.0 0.00 0.00 0.00 60 1011.1
20260505214632 54 60 4.0 11.0 0.00 0.00 0.00 62 1011.3
20260505214117 54 79 6.0 11.0 0.00 0.00 0.00 62 1011.3
20260505213636 54 84 5.0 13.0 0.00 0.00 0.00 62 1011.4
20260505213123 54 120 6.0 13.0 0.00 0.00 0.00 60 1011.4
20260505212624 54 75 1.0 9.0 0.00 0.00 0.00 60 1011.4
20260505212132 55 80 3.0 9.0 0.00 0.00 0.00 59 1011.4
20260505211617 55 53 2.0 6.0 0.00 0.00 0.00 57 1011.4
20260505211117 55 63 1.0 6.0 0.00 0.00 0.00 58 1011.4
20260505210640 55 34 2.0 5.0 0.00 0.00 0.00 58 1011.3
20260505210147 55 23 1.0 6.0 0.00 0.00 0.00 57 1011.3
20260505205628 55 41 2.0 6.0 0.00 0.00 0.00 61 1011.3
20260505205129 56 18 2.0 5.0 0.00 0.00 0.00 60 1011.3
20260505204617 56 33 1.0 3.0 0.00 0.00 0.00 57 1011.3
20260505204119 56 283 0.0 2.0 0.00 0.00 0.00 53 1011.3
20260505203626 56 130 0.0 1.0 0.00 0.00 0.00 51 1011.3
20260505203127 57 136 1.0 1.0 0.00 0.00 0.00 50 1011.2
20260505202628 56 138 0.0 3.0 0.00 0.00 0.00 50 1011.3
20260505202137 56 137 1.0 3.0 0.00 0.00 0.00 50 1011.3
20260505201617 56 266 0.0 1.0 0.00 0.00 0.00 50 1011.3
20260505201124 56 266 0.0 3.0 0.00 0.00 0.00 49 1011.3
20260505200622 56 153 1.0 3.0 0.00 0.00 0.00 50 1011.3
20260505200132 56 91 2.0 5.0 0.00 0.00 0.00 49 1011.3
20260505195651 56 141 1.0 5.0 0.00 0.00 0.00 50 1011.3
20260505195111 56 130 2.0 4.0 0.00 0.00 0.00 50 1011.3
20260505194638 56 120 2.0 10.0 0.00 0.00 0.00 52 1011.2
20260505194118 56 58 5.0 11.0 0.00 0.00 0.00 53 1011.2
20260505193624 56 61 4.0 11.0 0.00 0.00 0.00 53 1011.2
20260505193125 56 118 3.0 9.0 0.00 0.00 0.00 51 1011.2
20260505192633 56 63 5.0 9.0 0.00 0.00 0.00 51 1011.3
20260505192134 56 79 3.0 10.0 0.00 0.00 0.00 53 1011.4
20260505191613 56 89 5.0 10.0 0.00 0.00 0.00 52 1011.4
20260505191120 57 88 4.0 10.0 0.00 0.00 0.00 50 1011.4
20260505190621 56 208 0.0 1.0 0.00 0.00 0.00 48 1011.4
20260505190128 56 267 0.0 1.0 0.00 0.00 0.00 50 1011.3
20260505185629 56 288 0.0 4.0 0.00 0.00 0.00 50 1011.4
20260505185137 56 185 1.0 4.0 0.00 0.00 0.00 50 1011.4
20260505184618 56 199 0.0 7.0 0.00 0.00 0.00 51 1011.5
20260505184119 56 326 3.0 7.0 0.00 0.00 0.00 48 1011.5
20260505183627 57 288 1.0 3.0 0.00 0.00 0.00 47 1011.4
20260505183125 57 307 0.0 5.0 0.00 0.00 0.00 47 1011.4
20260505182623 57 290 1.0 3.0 0.00 0.00 0.00 46 1011.4
20260505182151 58 229 0.0 5.0 0.00 0.00 0.00 46 1011.4
20260505181611 58 162 2.0 5.0 0.00 0.00 0.00 45 1011.4
20260505181111 58 27 1.0 5.0 0.00 0.00 0.00 46 1011.4
20260505180615 58 141 1.0 10.0 0.00 0.00 0.00 47 1011.3
20260505180115 57 146 2.0 10.0 0.00 0.00 0.00 48 1011.3
20260505175642 57 157 3.0 7.0 0.00 0.00 0.00 46 1011.3
20260505175130 57 228 3.0 7.0 0.00 0.00 0.00 47 1011.3
20260505174612 57 137 1.0 5.0 0.00 0.00 0.00 51 1011.3
20260505174113 57 274 1.0 5.0 0.00 0.00 0.00 49 1011.3
20260505173613 56 193 1.0 8.0 0.00 0.00 0.00 50 1011.3
20260505173121 57 161 2.0 6.0 0.00 0.00 0.00 49 1011.3
20260505172622 56 276 2.0 5.0 0.00 0.00 0.00 51 1011.2
20260505172122 57 219 1.0 7.0 0.00 0.00 0.00 49 1011.3
20260505171630 57 207 2.0 7.0 0.00 0.00 0.00 49 1011.2
20260505171112 56 118 2.0 6.0 0.00 0.00 0.00 49 1011.2
20260505170612 56 176 1.0 7.0 0.00 0.00 0.00 50 1011.1
20260505170121 56 226 2.0 7.0 0.00 0.00 0.00 50 1011.2
20260505165622 56 203 3.0 7.0 0.00 0.00 0.00 50 1011.1
20260505165149 56 202 1.0 6.0 0.00 0.00 0.00 50 1011.0
20260505164656 56 253 1.0 6.0 0.00 0.00 0.00 51 1011.1
20260505164113 56 143 1.0 5.0 0.00 0.00 0.00 51 1011.1
20260505163613 56 59 1.0 8.0 0.00 0.00 0.00 50 1011.0
20260505163121 56 258 2.0 8.0 0.00 0.00 0.00 51 1011.1
20260505162621 56 251 2.0 7.0 0.00 0.00 0.00 50 1011.1
20260505162149 56 211 1.0 6.0 0.00 0.00 0.00 50 1011.0
20260505161629 56 181 1.0 5.0 0.00 0.00 0.00 52 1010.9
20260505161137 56 200 1.0 5.0 0.00 0.00 0.00 53 1010.9